TITAN 3C TRANSTAGE DEB, 1684

Orbit data source: Space-Track

TITAN 3C TRANSTAGE DEB, 1684 is space debris in LEO originally from a launch on Fri, 15 Oct 1965 UTC launched from the Air Force Eastern Test Range (AFETR). Debris objects in space refer to the collection of defunct objects orbiting the Earth. Examples of debris include non-operational satellites, rocket bodies, and fragments generated from explosions, collisions, or faulty payload assembly.

Loading next visibility...
Identifier
1684, 1965-082AX
Orbit
LEO
Country
Flag of USUS
Related business
Manufacturer
Unknown
Mission
Spacecraft
Bus & Motor
Unknown
Mass
Unknown
Launch date (UTC)
1965-10-15 (60 years ago)
Launch vehicle
Unknown
Launch site
Air Force Eastern Test Range (AFETR)
Object type
Payload
Rocket body
Debris
Shape & HBR
Unknown shape, 0.9 m
Radar Cross Section
Large (>1 m²)

Expand to show TLE details & history
Last TLE update: 11 hours ago

TLE from 11 hours ago
0 TITAN 3C TRANSTAGE DEB
1 01684U 65082AX  25340.55957213  .00002995  00000-0  78525-3 0  9996
2 01684  32.2122 195.9589 0168386 192.7793 166.8544 14.39803260114757
Epoch: 2025-12-06T13:25Z
TLE epoch observation values (Epoch: 2025-12-06T13:25:47.032Z)
Latitude
Longitude
-81.07263°
Altitude
874.925 km
Speed
7.356 km/s
True Right ascension
13h 03m 50s
True Declination
0° 00' 00"
Sunlit
Object was in daylight at epoch
Visualization orbit readout
Latitude
Unknown
Longitude
Unknown
Altitude
Unknown
Speed
Unknown
Apparent Right ascension
Unknown
Apparent Declination
Unknown
Sunlit
N/A
Visualization observer readout
Local Sidereal Time
22:48:04
Azimuth
Unknown
Elevation
Unknown
Doppler factor
Unknown
Orbital elements
Apogee altitude
882.938 km
Perigee altitude
642.455 km
Semi-major axis
7,140.833 km
Eccentricity
0.01684
Inclination
32.2122°
RAAN
195.9589°
Arg. of periapsis
192.7793°
True anomaly
167.28441°
Mean anomaly
166.8544°
Eccentric anomaly
167.07028°
Mean motion
3.59683 °/min
Orbital period
100.09 mins
BSTAR
0.00078525

Documentation

Showing up to 5 results
|